GW3215 Weather Reports


time (UTC)temp
C
wind
direction
speed
KPH
gust
KPH
rain 1hr
cm
rain 24hr
cm
rain mn
cm
humidity
%
barometer
mb
20260504050015 8 172 0.0 3.2 0.00 0.03 0.00 90 1017.0
20260504044520 8 172 0.0 3.2 0.00 0.03 0.00 89 1017.1
20260504043034 8 172 0.0 1.6 0.00 0.03 0.00 89 1017.1
20260504041523 8 172 0.0 1.6 0.00 0.03 0.00 88 1017.3
20260504040007 8 172 0.0 1.6 0.00 0.03 0.00 88 1017.3
20260504034510 8 172 0.0 1.6 0.00 0.03 0.03 88 1017.2
20260504033015 8 172 0.0 1.6 0.00 0.03 0.03 87 1017.2
20260504031521 9 172 0.0 1.6 0.00 0.03 0.03 86 1017.2
20260504030026 9 172 0.0 1.6 0.00 0.03 0.03 85 1017.2
20260504024508 9 172 0.0 0.0 0.00 0.03 0.03 84 1017.1
20260504023010 10 172 0.0 0.0 0.00 0.03 0.03 82 1016.9
20260504021516 10 172 0.0 0.0 0.00 0.03 0.03 80 1016.8
20260504020023 11 172 0.0 0.0 0.00 0.03 0.03 79 1016.6
20260504014537 11 172 0.0 0.0 0.00 0.03 0.03 78 1016.4
20260504013036 11 174 0.0 0.0 0.00 0.03 0.03 77 1016.3
20260504011515 12 174 0.0 0.0 0.00 0.03 0.03 74 1016.2
20260504010020 13 174 0.0 1.6 0.00 0.03 0.03 70 1016.2
20260504004527 14 174 0.0 0.0 0.00 0.03 0.03 67 1016.0
20260504003024 15 174 0.0 0.0 0.00 0.03 0.03 65 1015.9
20260504001528 15 174 0.0 0.0 0.00 0.03 0.03 61 1015.8
20260504000019 16 174 0.0 1.6 0.00 0.03 0.03 57 1015.7
20260503234523 17 156 0.0 1.6 0.00 0.03 0.03 54 1015.5
20260503233026 18 156 0.0 4.8 0.00 0.08 0.03 52 1015.5
20260503231528 19 178 1.6 9.7 0.00 0.13 0.03 43 1015.6
20260503230028 19 240 1.6 8.0 0.00 0.15 0.03 44 1015.8
20260503224517 20 166 1.6 9.7 0.00 0.15 0.03 40 1015.9
20260503223006 20 207 3.2 9.7 0.00 0.15 0.03 40 1015.9
20260503221509 20 236 3.2 8.0 0.00 0.15 0.03 39 1015.9
20260503220013 20 153 0.0 11.3 0.00 0.15 0.03 41 1016.0
20260503214503 20 153 1.6 9.7 0.00 0.15 0.03 41 1016.1
20260503213007 21 241 1.6 8.0 0.00 0.15 0.03 39 1016.2
20260503211504 21 219 3.2 11.3 0.00 0.15 0.03 40 1016.3
20260503210008 21 225 1.6 12.9 0.00 0.15 0.03 40 1016.4
20260503204516 21 207 3.2 11.3 0.00 0.15 0.03 41 1016.6
20260503203008 21 107 0.0 9.7 0.00 0.15 0.03 42 1016.8
20260503201506 20 219 4.8 12.9 0.00 0.15 0.03 40 1017.1
20260503200006 21 234 4.8 9.7 0.00 0.15 0.03 40 1017.6
20260503194521 20 271 6.4 14.5 0.00 0.15 0.03 37 1017.9
20260503193016 20 11 6.4 16.1 0.00 0.15 0.03 40 1018.0
20260503191519 20 217 3.2 16.1 0.00 0.15 0.03 43 1018.5
20260503190006 20 342 6.4 16.1 0.00 0.15 0.03 41 1018.6
20260503184515 21 244 3.2 8.0 0.00 0.15 0.03 45 1018.8
20260503183017 20 315 1.6 9.7 0.00 0.15 0.03 46 1018.8
20260503181520 20 71 1.6 8.0 0.00 0.15 0.03 45 1018.8
20260503180026 18 161 3.2 11.3 0.00 0.15 0.03 47 1019.1
20260503174506 19 235 3.2 11.3 0.00 0.15 0.03 46 1019.1
20260503173012 19 284 3.2 11.3 0.00 0.15 0.03 44 1019.1
20260503171516 18 226 6.4 12.9 0.00 0.15 0.03 46 1019.4
20260503081525 5 185 0.0 1.6 0.03 0.20 0.03 93 1017.2
20260503071528 6 185 0.0 1.6 0.00 0.18 0.00 93 1016.8